Location: *
(53.2053°N, 5.8147°E)
Time: 05:36:51
(UTC+00:00)

Daily predictions for brighter satellites

Satellite Brightness Start Highest point End
(mag) Time Altitude Azimuth Time Altitude Azimuth Time Altitude Azimuth
SL-16 R/B 3.4 00:11:06 43° ENE 00:11:06 43° ENE 00:16:51 10° N
Cosmos 2278 Rocket 3.4 00:22:37 38° NE 00:22:37 38° NE 00:26:05 10° NNE
USA 267 3.6 00:18:20 10° ENE 00:23:21 56° ENE 00:23:21 56° ENE
CZ-2D R/B 4.0 00:22:21 10° NE 00:25:23 22° ENE 00:25:23 22° ENE
ATLAS 5 CENTAUR R/B 3.6 00:41:47 28° NE 00:41:47 28° NE 00:44:17 10° NE
USA 238 DEB 4.5 00:55:06 40° ESE 00:55:06 40° ESE 01:00:40 10° NE
USA 238 4.5 00:55:12 40° ESE 00:55:12 40° ESE 01:00:46 10° NE
ADEOS II 4.2 00:58:11 10° NE 01:01:39 18° E 01:02:32 17° E
Cosmos 1763 Rocket 4.4 01:07:59 46° NE 01:07:59 46° NE 01:11:44 10° NNE
Cosmos 1844 Rocket 4.4 01:08:24 24° NW 01:08:48 24° NW 01:13:25 10° NNE
ATLAS CENTAUR R/B 4.0 01:10:51 16° NNW 01:12:48 20° N 01:16:16 10° NE
MOS 1-B Rocket 4.3 01:09:03 10° NNE 01:15:16 61° E 01:15:16 61° E
Tsikada Rocket 4.2 01:19:14 61° NNW 01:19:14 61° NNW 01:24:28 10° N
Cosmos 2279 Rocket 4.0 01:14:00 10° N 01:20:02 74° NE 01:20:02 74° NE
Resurs 1-4 Rocket 2.7 01:15:51 10° NNE 01:20:11 52° ENE 01:20:11 52° ENE
CZ-4B R/B 4.4 01:22:49 16° NE 01:22:49 16° NE 01:24:14 10° NNE
ARIANE 5 R/B 4.2 01:21:22 10° NE 01:25:36 25° E 01:26:12 25° ESE
Cosmos 1634 Rocket 4.4 01:24:58 10° NNW 01:30:01 53° NW 01:30:01 53° NW
Cosmos 2297 3.9 01:33:02 68° NNE 01:33:02 68° NNE 01:38:00 10° NNE
ATLAS 3B R/B 3.6 01:35:37 33° SE 01:36:21 34° ESE 01:42:09 10° ENE
NOSS 3-2 (A) 3.7 01:36:40 57° ESE 01:36:40 57° ESE 01:43:02 10° NE
Cosmos 2369 Rocket 3.2 01:38:09 36° ESE 01:38:26 37° ESE 01:43:36 10° NE
Cosmos 1125 Rocket 4.2 01:36:03 10° NNW 01:39:48 47° NNW 01:39:48 47° NNW
NOSS 3-2 (C) 4.0 01:41:45 44° SE 01:41:58 44° ESE 01:48:15 10° NE
Cosmos 1814 Rocket 4.3 01:43:48 63° NNE 01:43:48 63° NNE 01:48:10 10° NNE
Cosmos 1833 4.5 01:42:29 10° NNW 01:48:06 65° NE 01:51:06 28° SE
SL-16 R/B 3.3 01:56:12 39° WNW 01:56:12 39° WNW 02:00:37 10° NNW
deb Chang Zheng 4 4.5 01:53:08 10° NNE 01:56:55 47° ENE 01:56:55 47° ENE
Nadezhda 4 Rocket 4.5 01:56:23 39° SE 01:58:16 53° E 02:04:13 10° NNE
SME Rocket 3.7 01:51:45 10° NNE 01:58:57 80° ESE 01:59:20 75° SSE
CBERS-1 4.0 01:53:55 10° NNE 01:58:44 77° NE 01:58:44 77° NE
Cosmos 841 Rocket 3.6 02:00:36 66° NNW 02:00:36 66° NNW 02:05:19 10° NNE
Cosmos 2278 Rocket 3.4 02:04:28 28° NW 02:05:04 29° NW 02:10:01 10° NNE
Meteor 1-20 Rocket 4.1 02:00:15 10° NNW 02:05:18 73° NW 02:05:18 73° NW
Lacrosse 5 2.0 02:07:00 70° E 02:07:00 70° E 02:11:31 10° ESE
H-2A R/B 4.5 02:10:01 12° NW 02:10:01 12° NW 02:10:27 10° NNW
CZ-2D R/B 2.2 02:01:50 10° NNE 02:06:42 63° NW 02:06:42 63° NW
USA 267 3.5 02:01:20 10° ENE 02:07:48 65° N 02:10:41 35° WNW
Cosmos 1943 Rocket 2.2 02:12:39 63° SSE 02:13:13 68° ESE 02:18:45 10° NE
IRS-1C 4.1 02:08:51 10° NNE 02:14:14 78° ESE 02:14:50 69° SSE
CENTAUR R/B 3.0 02:13:07 43° SSE 02:14:38 52° SE 02:21:32 10° NE
NPP 3.7 02:09:33 10° N 02:14:47 61° WNW 02:14:47 61° WNW
ATLAS 5 CENTAUR R/B 3.1 02:20:17 31° ENE 02:20:17 31° ENE 02:22:57 10° ENE
AQUA 4.1 02:16:03 10° N 02:20:12 54° NW 02:20:12 54° NW
ATLAS 5 CENTAUR R/B 3.2 02:23:19 27° NW 02:24:35 31° NNW 02:29:22 10° NE
Gbstr 26 Del rocket 4.4 02:21:47 40° W 02:25:04 74° SSW 02:33:00 10° ESE
SL-08 R/B 4.5 02:30:43 30° NW 02:30:43 30° NW 02:33:23 10° NNW
Spot 4 Rocket 4.2 02:25:07 10° NNE 02:30:16 66° ESE 02:31:44 45° SSE
Cosmos 2228 Rocket 3.8 02:34:08 42° NW 02:34:08 42° NW 02:37:40 10° N
Cosmos 540 Rocket 3.7 02:34:18 50° WNW 02:34:31 51° WNW 02:39:35 10° NNE
Unknown 4.4 02:35:35 41° SE 02:35:35 41° SE 02:39:00 10° E
Meteor 1-11 Rocket 4.4 02:29:50 10° N 02:35:21 53° ENE 02:40:45 10° SSE
Unknown 4.4 02:35:54 42° SE 02:35:54 42° SE 02:39:20 10° E
Cosmos 2344 3.6 02:34:41 42° SW 02:37:38 85° SE 02:46:22 10° NE
Unknown 4.3 02:38:45 44° SE 02:38:45 44° SE 02:42:17 10° E
IRS-1D 3.7 02:33:54 10° N 02:39:10 58° WNW 02:39:46 55° W
Cosmos 220 Rocket 4.1 02:38:58 64° SE 02:39:18 67° ESE 02:43:33 10° NNE
BREEZE-M DEB (TANK) 4.5 02:41:07 23° SSE 02:41:07 23° SSE 02:45:29 10° SE
Unknown 4.2 02:40:27 46° SE 02:40:27 46° SE 02:44:05 10° E
ERS-1 4.4 02:35:33 10° NNE 02:40:41 84° WNW 02:41:47 57° SSW
Unknown 4.2 02:41:13 45° SE 02:41:13 45° SE 02:44:53 10° E
IRIDIUM 104 4.3 02:41:17 59° WSW 02:41:43 61° W 02:46:54 10° N
ADEOS II 2.0 02:36:47 10° NNE 02:42:05 87° WNW 02:43:28 51° SSW
Unknown 4.1 02:43:37 48° SE 02:43:37 48° SE 02:47:22 10° E
Cosmos 2084 4.3 02:43:59 39° NW 02:44:29 40° NNW 02:48:40 10° NE
Cosmos 1340 4.2 02:41:10 10° N 02:44:43 36° ENE 02:48:14 10° SE
USA 238 DEB 3.8 02:42:33 42° WSW 02:44:56 67° NW 02:51:59 10° NE
Unknown 4.1 02:45:09 48° SE 02:45:09 48° SE 02:48:58 10° E
USA 238 3.8 02:42:38 42° WSW 02:45:02 68° NW 02:52:06 10° NE
Unknown 4.1 02:45:36 49° SE 02:45:36 49° SE 02:49:26 10° E
Unknown 4.0 02:48:15 49° SSE 02:48:15 49° SSE 02:52:12 10° E
Timation 2 Rocket 3.7 02:42:16 10° NW 02:48:21 76° WSW 02:54:18 10° SSE
Cosmos 1782 2.8 02:50:27 69° NW 02:50:27 69° NW 02:54:12 10° N
IRS-P3 4.3 02:45:16 10° N 02:50:27 52° WNW 02:51:20 47° W
IRIDIUM 114 4.4 02:50:25 50° W 02:50:54 52° W 02:56:03 10° N
Unknown 3.9 02:51:30 52° SSE 02:51:32 52° SSE 02:55:35 10° E
ATLAS CENTAUR R/B 3.3 02:48:52 10° NW 02:53:05 31° NNE 02:57:01 10° E
Unknown 3.9 02:53:07 53° SSE 02:53:13 53° SSE 02:57:16 10° E
CZ-4B R/B 3.5 02:56:07 18° NNW 02:56:07 18° NNW 02:57:13 10° NNW
Unknown 3.8 02:54:41 53° SSE 02:54:51 54° SSE 02:58:54 10° E
Cosmos 2263 4.1 02:53:01 43° SSW 02:55:00 87° ESE 03:00:39 10° NNE
Unknown 3.7 02:54:57 60° SSE 02:55:01 60° SSE 02:59:02 10° E
Cosmos 1707 Rocket 3.4 02:54:54 59° SSW 02:55:42 83° W 03:00:07 10° N
Unknown 3.8 02:56:18 54° S 02:56:31 55° SSE 03:00:35 10° E
Cosmos 1733 Rocket 3.0 02:54:26 10° NNW 02:58:55 85° WSW 03:01:17 28° S
Unknown 3.8 02:59:30 54° S 02:59:51 56° SSE 03:03:56 10° E
Resurs 1-4 Rocket 3.1 02:56:11 10° N 03:00:38 28° WNW 03:01:16 28° WNW
Unknown 3.1 03:01:04 84° E 03:01:04 84° E 03:04:30 10° E
Falcon 9 debris 3.1 03:01:20 82° E 03:01:20 82° E 03:04:41 10° E
Unknown 3.7 03:01:08 54° S 03:01:31 57° SSE 03:05:36 10° E
Cosmos 1400 Rocket 2.7 03:01:27 52° S 03:02:19 78° E 03:06:12 10° NNE
Meteor 1-5 Rocket 4.1 02:57:24 10° NNW 03:02:53 89° ENE 03:08:31 10° SSE
Unknown 3.7 03:02:42 54° S 03:03:10 58° SSE 03:07:15 10° E
Cosmos 1656 Rocket 3.9 03:01:25 28° S 03:04:26 68° ESE 03:10:03 10° NE
Unknown 3.7 03:04:14 53° SSW 03:04:46 58° SSE 03:08:51 10° E
ARIANE 5 R/B 2.6 03:00:03 10° N 03:05:05 58° WNW 03:06:32 42° WSW
Unknown 3.7 03:06:06 53° SSW 03:06:43 60° SSE 03:10:49 10° E
Unknown 3.8 03:07:18 51° SSW 03:07:57 58° SSE 03:12:02 10° E
Aureole 2 Rocket 3.6 03:09:34 25° SE 03:10:01 26° ESE 03:12:20 10° NE
Meteor 2-9 4.5 03:04:49 10° NNW 03:10:15 72° W 03:15:35 10° S
Unknown 3.7 03:10:08 52° SSW 03:10:51 63° SSE 03:14:55 10° E
Unknown 3.8 03:10:31 49° SSW 03:11:17 60° SSE 03:15:23 10° E
Cosmos 1606 4.4 03:13:28 21° NW 03:13:28 21° NW 03:15:51 10° NNW
Unknown 3.8 03:12:07 49° SSW 03:12:57 61° SSE 03:17:03 10° E
Cosmos 2227 Rocket 3.5 03:07:44 10° NNW 03:13:08 41° NE 03:18:29 10° ESE
Unknown 3.7 03:13:53 48° SW 03:14:48 64° SSE 03:18:55 10° E
Unknown 3.7 03:15:18 47° SW 03:16:16 63° SSE 03:20:22 10° E
CZ-2C R/B 2.7 03:12:32 10° N 03:16:31 71° WNW 03:17:36 45° SW
Unknown 3.7 03:16:56 46° SW 03:17:57 64° SSE 03:22:04 10° E
Unknown 3.3 03:17:29 54° WSW 03:18:18 83° S 03:22:09 10° E
Cosmos 2219 3.7 03:12:39 10° NNW 03:18:20 63° NE 03:23:57 10° SE
Cosmos 1346 Rocket 2.8 03:16:15 10° NNW 03:20:24 88° E 03:24:30 10° SSE
Unknown 3.7 03:20:05 43° SW 03:21:14 65° SSE 03:25:21 10° E
ADEOS 4.1 03:16:20 10° NNE 03:21:32 60° ESE 03:26:41 10° S
Cosmos 2369 Rocket 2.5 03:19:57 32° WSW 03:22:20 52° NW 03:27:53 10° NNE
Unknown 3.7 03:21:41 42° SW 03:22:54 66° SSE 03:27:02 10° E
Cosmos 2297 Rocket 3.2 03:18:03 10° NNW 03:23:33 49° NE 03:29:01 10° SE
Unknown 3.7 03:23:17 41° SW 03:24:33 67° SSE 03:28:41 10° E
Cosmos 1500 3.0 03:21:34 10° NNW 03:25:19 73° W 03:28:50 11° S
Cosmos 1536 2.7 03:22:05 10° N 03:26:05 86° E 03:30:04 10° S
Unknown 3.7 03:24:54 40° SW 03:26:14 68° SSE 03:30:22 10° E
Cosmos 1092 Rocket 4.0 03:22:26 23° SSW 03:26:20 62° WNW 03:32:28 10° N
ATLAS 3B R/B 2.6 03:22:53 28° WSW 03:26:37 76° NW 03:33:15 10° NE
NOSS 3-2 (A) 4.0 03:24:03 26° W 03:27:31 53° NNW 03:34:25 10° NE
Unknown 3.4 03:27:45 41° WSW 03:29:02 84° S 03:32:56 10° E
Unknown 3.6 03:28:05 38° SW 03:29:33 69° SSE 03:33:41 10° E
Unknown 3.6 03:29:57 37° WSW 03:31:30 74° SSE 03:35:38 10° E
Unknown 3.1 03:30:55 41° W 03:32:03 85° S 03:35:36 10° E
NOSS 3-2 (C) 3.8 03:29:11 26° WSW 03:32:43 61° NNW 03:39:42 10° NE
Cosmos 44 3.2 03:30:33 30° SW 03:33:00 79° NW 03:37:44 10° NE
Unknown 3.6 03:31:30 36° WSW 03:33:06 74° SSE 03:37:16 10° E
Unknown 3.6 03:31:33 36° WSW 03:33:09 72° SSE 03:37:18 10° E
Unknown 3.3 03:32:34 37° W 03:33:57 89° S 03:37:43 10° E
Cosmos 1782 Rocket 4.2 03:30:44 10° N 03:35:04 57° ENE 03:39:24 10° SSE
Unknown 3.6 03:34:27 34° WSW 03:36:10 73° SSE 03:40:19 10° E
CZ-2D R/B 4.1 03:34:04 10° N 03:37:46 35° WNW 03:38:51 30° W
Unknown 3.6 03:37:40 32° WSW 03:39:30 74° SSE 03:43:39 10° E
Meteor 1-28 Rocket 4.1 03:39:57 29° W 03:39:57 29° W 03:43:08 10° NNW
Unknown 3.0 03:38:40 35° W 03:40:00 79° S 03:43:27 10° ESE
H-2A R/B 2.9 03:36:40 10° NNE 03:40:28 56° ESE 03:44:14 10° S
Unknown 3.6 03:39:15 31° WSW 03:41:09 75° SSE 03:45:18 10° E
Unknown 3.6 03:40:51 30° WSW 03:42:49 76° SSE 03:46:59 10° E
Iridium 4 Rocket 3.3 03:41:09 22° SW 03:43:34 46° W 03:47:37 10° N
Unknown 3.6 03:42:28 29° WSW 03:44:30 76° SSE 03:48:40 10° E
CZ-2D R/B 3.9 03:43:16 10° NNW 03:46:14 15° NW 03:48:01 13° WNW
Cosmos 773 Rocket 4.0 03:42:54 13° SSW 03:47:34 87° ESE 03:52:44 10° NNE
FALCON 9 DEB 3.1 03:45:54 28° W 03:47:36 79° SSW 03:51:09 10° ESE
Unknown 3.5 03:48:06 31° SSW 03:48:07 31° SSW 03:50:42 10° SE
Lacrosse 5 2.4 03:46:16 20° W 03:49:08 35° SW 03:53:41 10° SSE
USA 267 3.4 03:44:05 10° ESE 03:50:38 78° NNE 03:57:11 10° WNW
CZ-2C R/B 3.6 03:46:00 10° NNE 03:50:43 45° E 03:55:33 10° S
Unknown 3.6 03:48:50 26° WSW 03:51:08 79° SSE 03:55:18 10° E
Cosmos 2278 Rocket 4.4 03:48:13 10° NW 03:51:10 14° NNW 03:54:07 10° NNE
Cosmos 1703 Rocket 4.0 03:48:02 10° S 03:52:25 66° E 03:56:48 10° NNE
Unknown 3.6 03:50:27 25° WSW 03:52:49 79° SSE 03:56:58 10° E
MSX 4.2 03:47:17 10° NNE 03:53:03 68° ESE 03:58:46 10° S
Unknown 3.3 03:52:31 29° WSW 03:53:45 46° SSW 03:56:51 10° SE
Unknown 3.6 03:52:01 24° WSW 03:54:26 80° SSE 03:58:36 10° E
Unknown 3.6 03:53:37 23° WSW 03:56:07 81° SSE 04:00:16 10° E
Cosmos 1943 Rocket 3.2 03:54:11 18° W 03:57:25 32° NW 04:02:25 10° NNE
Unknown 3.6 03:55:14 23° WSW 03:57:48 81° SSE 04:01:57 10° E
Cosmos 1743 3.6 03:54:45 10° N 03:58:37 55° ENE 04:02:27 10° SSE
CZ-4B R/B 4.3 03:55:04 10° NNE 03:59:27 45° E 04:03:46 10° S
Sich 1 Rocket 3.7 03:55:46 10° N 04:00:14 81° ENE 04:04:45 10° SSE
Cosmos 1812 2.9 03:57:55 14° SSW 04:01:03 51° WNW 04:04:51 10° N
Unknown 3.6 03:58:26 21° WSW 04:01:08 82° S 04:05:17 10° E
Starlink (trailer) 3.6 04:00:02 21° WSW 04:02:47 83° S 04:06:57 10° E
IDEFIX/ARIANE 42P 2.6 03:58:08 10° NNE 04:03:25 74° WNW 04:08:40 10° SSW
Cosmos 1862 Rocket 4.0 04:00:42 15° SW 04:04:11 42° WNW 04:08:30 10° N
Unknown 3.6 04:01:38 20° WSW 04:04:28 83° S 04:08:37 10° E
CENTAUR R/B 3.0 04:00:18 17° WSW 04:05:20 58° NNW 04:12:49 10° NE
Cosmos 1553 Rocket 4.2 03:59:39 10° NNW 04:05:39 50° W 04:11:33 10° SSW
Unknown 3.6 04:03:13 19° WSW 04:06:06 84° S 04:10:16 10° E
Meteor 1-27 Rocket 3.8 04:00:33 10° SSW 04:06:21 65° WNW 04:12:05 10° N
Okean 1-7 3.2 04:04:07 10° S 04:08:31 78° E 04:12:55 10° NNE
Cosmos 2242 Rocket 3.8 04:05:48 10° SSW 04:10:13 52° WNW 04:14:37 10° N
USA 81 4.4 04:05:34 10° SSW 04:10:37 45° WNW 04:15:43 10° N
ATLAS 5 CENTAUR R/B 3.7 04:06:10 10° NW 04:10:37 29° N 04:15:38 10° ENE
Unknown 3.6 04:09:38 17° W 04:12:47 86° S 04:16:57 10° E
Unknown 3.6 04:11:15 16° W 04:14:28 86° S 04:18:38 10° E
Unknown 3.6 04:11:33 16° W 04:14:47 86° S 04:18:57 10° E
Unknown 3.6 04:14:24 15° W 04:17:45 87° S 04:21:55 10° E
Meteor 1-11 Rocket 4.5 04:13:42 10° NNW 04:18:30 30° W 04:23:13 10° SSW
COSMOS 2441 4.4 04:13:56 10° NNE 04:18:51 84° WNW 04:23:45 10° SSW
Cosmos 1680 Rocket 4.5 04:13:57 10° S 04:18:59 50° ESE 04:24:02 10° NE
Unknown 3.6 04:16:06 15° W 04:19:32 87° S 04:23:42 10° E
Cosmos 2315 Rocket 4.0 04:13:25 10° N 04:19:40 89° E 04:25:54 10° S
Cosmos 1666 2.9 04:16:11 10° NNW 04:19:47 44° W 04:23:24 10° SSW
Cosmos 1340 3.8 04:17:07 10° NW 04:20:10 23° W 04:23:13 10° SW
Unknown 3.6 04:16:52 15° W 04:20:19 87° S 04:24:30 10° E
SeaSat 1 2.6 04:15:55 10° NNE 04:20:54 80° ESE 04:25:50 10° SSW
ADEOS II 3.6 04:17:28 10° N 04:21:08 19° NW 04:24:24 11° W
Unknown 3.6 04:19:16 14° W 04:22:49 88° S 04:26:59 10° E
Cosmos 1818 4.0 04:17:58 10° NW 04:23:26 67° NE 04:28:52 10° SE
BREEZE-M DEB (TANK) 3.2 04:20:12 12° WSW 04:23:33 37° S 04:25:48 10° ESE
BREEZE-M DEB (TANK) 3.7 04:15:58 12° W 04:23:43 40° SSW 04:26:54 10° ESE
Unknown 3.6 04:20:48 14° W 04:24:24 88° S 04:28:35 10° E
Cosmos 1315 Rocket 3.5 04:20:44 10° SW 04:24:36 38° WNW 04:28:30 10° N
Unknown 3.6 04:21:15 13° W 04:24:53 88° SSE 04:29:03 10° E
Meteor 2-13 Rocket 4.5 04:20:52 10° SSW 04:27:03 81° WNW 04:33:16 10° N
Unknown 3.6 04:23:54 13° W 04:27:38 88° S 04:31:48 10° E
CZ-4B R/B 3.8 04:24:36 10° NNE 04:28:19 79° ESE 04:31:57 10° SSW
Cosmos 1908 Rocket 4.4 04:25:52 10° NNW 04:29:35 28° W 04:33:17 10° SSW
Cosmos 1538 Rocket 4.1 04:25:03 10° SW 04:30:09 59° WNW 04:35:18 10° NNE
Unknown 3.6 04:27:09 12° W 04:31:01 89° S 04:35:12 10° E
PSLV R/B 4.2 04:27:10 10° N 04:31:13 38° WNW 04:35:15 10° SW
COSMO-SKYMED 1 2.8 04:27:00 10° SSE 04:31:20 76° ENE 04:35:41 10° NNW
Cosmos 2056 Rocket 3.6 04:26:03 10° NNW 04:31:23 85° ENE 04:36:36 10° SSE
ATLAS CENTAUR R/B 1.5 04:27:55 10° NW 04:32:30 76° SW 04:36:43 10° SE
Unknown 3.6 04:28:47 11° W 04:32:43 89° S 04:36:53 10° E
Unknown 3.6 04:30:14 11° W 04:34:10 89° S 04:38:14 10° E
Unknown 3.6 04:30:20 11° W 04:34:21 89° SSE 04:38:31 10° E
Unknown 3.6 04:31:57 11° W 04:36:01 89° SSW 04:40:12 10° E
Okean 2 Rocket 3.1 04:31:44 10° NNW 04:36:17 79° W 04:40:47 10° S
Meteor 1-31 Rocket 2.7 04:32:56 10° NNE 04:36:53 82° WNW 04:40:46 10° SSW
Falcon 9 debris 3.5 04:34:44 10° W 04:38:08 50° SSW 04:41:31 10° SE
Unknown 3.4 04:34:41 10° W 04:38:10 57° SSW 04:41:37 10° ESE
Unknown 3.6 04:35:12 10° W 04:39:22 89° S 04:43:32 10° E
PSLV R/B 4.3 04:35:55 10° NNE 04:39:58 67° ESE 04:43:53 10° S
Unknown 3.6 04:36:54 10° W 04:41:02 89° SSW 04:45:12 10° E
Cosmos 2082 3.7 04:36:30 10° NNW 04:42:14 87° WSW 04:47:54 10° SSE
Cosmos 1624 Rocket 4.0 04:37:24 10° NNW 04:42:40 79° WSW 04:47:55 10° SSE
Unknown 3.6 04:38:32 10° W 04:42:42 89° S 04:46:52 10° E
ARIANE 5 R/B 4.4 04:40:47 10° NNW 04:43:13 14° NW 04:45:37 10° WNW
Aureole 2 Rocket 3.5 04:42:15 10° W 04:44:12 18° NW 04:46:10 10° N
Unknown 3.6 04:40:08 10° W 04:44:18 89° S 04:48:28 10° E
Unknown 3.7 04:42:04 10° W 04:46:14 89° S 04:50:25 10° E
Unknown 3.6 04:43:19 10° W 04:47:28 89° SSW 04:51:39 10° E
PAYLOAD A 4.0 04:45:04 10° N 04:49:43 52° WNW 04:54:16 10° SW
Unknown 3.6 04:46:06 10° W 04:50:14 89° SSE 04:54:21 10° E
Unknown 3.7 04:46:40 10° W 04:50:49 89° S 04:54:59 10° E
Cosmos 2344 4.4 04:45:31 10° W 04:53:02 48° NNW 05:02:23 10° ENE
